Content
SEND FEEDBACK

Daily
Averages
Monthly
Summary
Spain

MAHON, SPAIN


Home > Europe > Spain
Elevation: 269 feet     Latitude: 39 52N     Longitude: 004 14E

WEATHER
 
SELECT A DAY
Number of Records: 249,583;   Date Range: 7/1/96 - 7/7/14
 
SHARE

PRINT THIS DATA

[ ← Previous Day ]
WEATHER ALMANAC - JANUARY 3, 2013
[ Next Day → ]
[ °C ]   °F
Weather ElementAverageHighLow
Temperature54.5 °F60.8 °F (12:00 pm)50 °F (1:00 am)
Dewpoint48.1 °F51.8 °F (4:30 pm)42.8 °F (1:00 am)
Humidity79.5 %95 % (7:00 am)58 % (1:00 pm)
Barometer30.45 in30.60 in (8:30 pm)30.27 in (1:00 am)
Wind Speed17.5 mph29.9 mph (4:00 am)
Wind Gust43.7 mph (4:00 am)
Weather ElementAverage
Visibility6 mi
Wind DirectionESE (128 °)

Weather ElementTotal
Precipitation---
Heating Degree Days9.6 (Base 65)
Growing Degree Days5.4 (Base 50)
Averaged from 41 records on January 3, 2013
WEATHER CONDITIONS BREAKOUT
WIND DIRECTION BREAKOUT
WEATHER BY HOUR - JANUARY 3, 2013
[ °C ]   °F
Local TimeTemperatureDewpointHumidityBarometerVisibilityWind DirectionWind SpeedGust SpeedPrecipitationEventsConditions
1:00 AM50.0 °F42.8 °F76 %30.27 in6.2 miNorth (350°)23.0 mphPartly Cloudy
4:00 AM51.8 °F42.8 °F71 %30.27 in6.2 miNorth (360°)29.9 mph43.7 mphScattered Clouds
5:00 AM51.8 °F46.4 °F82 %30.30 in6.2 miNorth (360°)28.8 mphScattered Clouds
5:30 AM51.8 °F46.4 °F82 %30.30 in6.2 miNorth (10°)26.5 mph38.0 mphScattered Clouds
6:00 AM51.8 °F46.4 °F82 %30.30 in6.2 miNorth (360°)26.5 mph43.7 mphScattered Clouds
6:30 AM51.8 °F48.2 °F88 %30.33 in6.2 miNorth (360°)25.3 mph39.1 mphRainLight Rain
6:47 AM50.0 °F48.2 °F94 %30.33 in1.9 miNorth (360°)24.2 mph38.0 mphRainHeavy Rain
7:00 AM50.0 °F49.0 °F95 %30.35 in2.0 miNorth24.2 mphRainRain
7:00 AM50.0 °F48.2 °F94 %30.33 in1.9 miNorth (360°)26.5 mph38.0 mphRainRain
7:16 AM50.0 °F48.2 °F94 %30.33 in5.0 miNorth (360°)21.9 mphScattered Clouds
7:30 AM50.0 °F48.2 °F94 %30.36 in5.6 miNorth (360°)16.1 mphPartly Cloudy
8:00 AM50.0 °F48.2 °F94 %30.36 in6.2 miNorth (360°)11.5 mphPartly Cloudy
8:30 AM51.8 °F46.4 °F82 %30.39 in6.2 miNNE (30°)13.8 mphScattered Clouds
9:00 AM51.8 °F44.6 °F76 %30.39 in6.2 miNE (40°)15.0 mphPartly Cloudy
9:30 AM55.4 °F46.4 °F72 %30.42 in6.2 miNE (40°)16.1 mphScattered Clouds
10:00 AM55.4 °F44.6 °F67 %30.42 in6.2 miNE (40°)17.3 mphScattered Clouds
10:30 AM55.4 °F42.8 °F63 %30.45 in6.2 miNE (50°)18.4 mphScattered Clouds
11:00 AM57.2 °F46.4 °F67 %30.48 in6.2 miNE (50°)17.3 mphScattered Clouds
11:30 AM59.0 °F44.6 °F59 %30.48 in6.2 miNE (50°)19.6 mphScattered Clouds
12:00 PM60.8 °F46.4 °F59 %30.48 in6.2 miNE (50°)18.4 mphScattered Clouds
12:30 PM60.8 °F46.4 °F59 %30.48 in6.2 miNE (50°)17.3 mphScattered Clouds
1:00 PM59.0 °F48.0 °F58 %30.49 in12.0 miENE (60°)17.3 mphPartly Cloudy
1:00 PM59.0 °F48.2 °F67 %30.48 in6.2 miENE (60°)16.1 mphScattered Clouds
2:00 PM59.0 °F48.2 °F67 %30.48 in6.2 miENE (60°)13.8 mphScattered Clouds
2:30 PM59.0 °F50.0 °F72 %30.48 in6.2 miENE (60°)11.5 mphScattered Clouds
3:00 PM59.0 °F50.0 °F72 %30.48 in6.2 miNE (50°)11.5 mphPartly Cloudy
3:30 PM59.0 °F50.0 °F72 %30.51 in6.2 miNE (50°)10.4 mphPartly Cloudy
4:00 PM59.0 °F50.0 °F72 %30.51 in6.2 miNE (50°)12.7 mphScattered Clouds
4:30 PM57.2 °F51.8 °F82 %30.51 in5.6 miNNE (20°)16.1 mphScattered Clouds
5:00 PM55.4 °F51.8 °F88 %30.54 in5.6 miNNE (20°)17.3 mph28.8 mphPartly Cloudy
5:30 PM55.4 °F50.0 °F82 %30.54 in5.6 miNorth (10°)17.3 mphScattered Clouds
6:00 PM55.4 °F50.0 °F82 %30.54 in6.2 miNorth (10°)15.0 mphScattered Clouds
6:30 PM53.6 °F50.0 °F88 %30.57 in6.2 miNorth (10°)16.1 mphScattered Clouds
7:00 PM54.0 °F51.0 °F84 %30.58 in7.0 miNorth (10°)18.4 mphMostly Cloudy
7:00 PM53.6 °F50.0 °F88 %30.57 in6.2 miNorth (10°)16.1 mphScattered Clouds
7:30 PM53.6 °F50.0 °F88 %30.57 in6.2 miNorth (10°)12.7 mphMostly Cloudy
8:00 PM53.6 °F50.0 °F88 %30.57 in6.2 miNorth (360°)10.4 mphMostly Cloudy
8:30 PM51.8 °F50.0 °F94 %30.60 in6.2 miNorth (360°)11.5 mphMostly Cloudy
9:00 PM53.6 °F50.0 °F88 %30.60 in6.2 miNorth (10°)12.7 mphMostly Cloudy
9:30 PM53.6 °F50.0 °F88 %30.60 in6.2 miNorth (10°)12.7 mphMostly Cloudy
10:00 PM53.6 °F50.0 °F88 %30.60 in6.2 miNNE (20°)11.5 mphMostly Cloudy
Hourly data recorded from LEMH, located miles away from Mahon, Spain







STORIES FROM OUR PARTNERS